EW5956 Weather Reports


Display with metric or nautical units.
time (UTC)temp
F
wind
direction
speed
MPH
gust
MPH
rain 1hr
in
rain 24hr
in
rain mn
in
humidity
%
barometer
mb
20260508005106 58 231 0.0 1.0 0.00 0.00 0.00 79 1013.9
20260508004605 58 227 1.0 2.0 0.00 0.00 0.00 77 1014.1
20260508003606 60 257 1.0 2.0 0.00 0.00 0.00 76 1014.1
20260508003106 60 218 1.0 3.0 0.00 0.00 0.00 76 1014.1
20260508002605 60 209 2.0 6.0 0.00 0.00 0.00 76 1014.1
20260508002105 58 224 1.0 5.0 0.00 0.00 0.00 77 1014.2
20260508001607 58 232 1.0 2.0 0.00 0.00 0.00 79 1014.0
20260508001105 59 217 1.0 2.0 0.00 0.00 0.00 77 1014.2
20260508000606 59 225 1.0 2.0 0.00 0.00 0.00 69 1014.2
20260507235105 60 243 1.0 5.0 0.00 0.00 0.00 69 1014.2
20260507234605 60 211 1.0 2.0 0.00 0.00 0.00 67 1014.4
20260507234105 61 237 0.0 3.0 0.00 0.00 0.00 67 1014.2
20260507233605 60 232 1.0 3.0 0.00 0.00 0.00 68 1014.4
20260507233105 61 233 1.0 2.0 0.00 0.00 0.00 67 1014.3
20260507232605 61 225 1.0 2.0 0.00 0.00 0.00 66 1014.6
20260507231606 61 157 2.0 5.0 0.00 0.00 0.00 66 1014.3
20260507231105 61 95 3.0 5.0 0.00 0.00 0.00 66 1014.4
20260507225605 62 82 3.0 7.0 0.00 0.00 0.00 65 1014.9
20260507225107 61 71 2.0 7.0 0.00 0.00 0.00 66 1014.9
20260507224606 61 107 3.0 6.0 0.00 0.00 0.00 66 1014.8
20260507224106 61 128 2.0 8.0 0.00 0.00 0.00 67 1014.9
20260507223107 61 191 2.0 7.0 0.00 0.00 0.00 67 1014.6
20260507222605 61 151 3.0 6.0 0.00 0.00 0.00 67 1014.9
20260507221605 61 113 4.0 7.0 0.00 0.00 0.00 67 1014.9
20260507220605 59 134 2.0 3.0 0.00 0.00 0.00 71 1014.6
20260507220112 59 201 2.0 3.0 0.00 0.00 0.00 72 1014.9
20260507215605 59 217 0.0 0.0 0.00 0.00 0.00 74 1014.6
20260507215105 59 216 0.0 1.0 0.00 0.00 0.00 73 1014.8
20260507214606 59 220 1.0 1.0 0.00 0.00 0.00 73 1014.9
20260507214105 60 225 1.0 1.0 0.00 0.00 0.00 72 1014.9
20260507213607 60 228 0.0 2.0 0.00 0.00 0.00 71 1014.9
20260507212607 60 249 1.0 1.0 0.00 0.00 0.00 72 1014.9
20260507212106 60 218 1.0 1.0 0.00 0.00 0.00 72 1014.6
20260507211606 60 215 1.0 2.0 0.00 0.00 0.00 72 1014.8
20260507211106 60 213 1.0 2.0 0.00 0.00 0.00 72 1014.9
20260507210605 60 224 0.0 1.0 0.00 0.00 0.00 72 1014.9
20260507205606 61 226 0.0 2.0 0.00 0.00 0.00 70 1014.9
20260507205105 60 210 0.0 2.0 0.00 0.00 0.00 71 1014.9
20260507204605 60 233 1.0 1.0 0.00 0.00 0.00 70 1015.0
20260507204105 61 238 0.0 2.0 0.00 0.00 0.00 70 1015.1
20260507203605 61 173 1.0 2.0 0.00 0.00 0.00 70 1014.9
20260507203105 61 226 0.0 1.0 0.00 0.00 0.00 70 1015.1
20260507202605 61 222 0.0 1.0 0.00 0.00 0.00 70 1015.2
20260507202106 61 315 2.0 2.0 0.00 0.00 0.00 69 1015.0
20260507201605 61 271 0.0 1.0 0.00 0.00 0.00 70 1014.9
20260507201107 61 222 1.0 2.0 0.00 0.00 0.00 69 1015.1
20260507200605 61 145 1.0 3.0 0.00 0.00 0.00 69 1015.2
20260507200112 61 15 2.0 3.0 0.00 0.00 0.00 69 1014.9
20260507195606 61 216 1.0 5.0 0.00 0.00 0.00 70 1015.1
20260507195105 61 141 1.0 5.0 0.00 0.00 0.00 69 1015.2
20260507194605 62 139 3.0 9.0 0.00 0.00 0.00 69 1015.0
20260507194105 61 96 6.0 8.0 0.00 0.00 0.00 70 1015.2
20260507193605 61 169 2.0 6.0 0.00 0.00 0.00 70 1014.9
20260507193105 61 170 2.0 6.0 0.00 0.00 0.00 71 1014.9
20260507192605 61 76 3.0 6.0 0.00 0.00 0.00 71 1014.9
20260507192105 61 137 2.0 3.0 0.00 0.00 0.00 71 1014.9
20260507191606 62 192 2.0 3.0 0.00 0.00 0.00 71 1014.9
20260507191106 62 185 2.0 7.0 0.00 0.00 0.00 71 1014.6
20260507190605 62 102 6.0 8.0 0.00 0.00 0.00 71 1014.7
20260507190112 62 138 3.0 7.0 0.00 0.00 0.00 72 1014.6
20260507185605 62 89 4.0 7.0 0.00 0.00 0.00 72 1014.6
20260507185106 62 67 4.0 6.0 0.00 0.00 0.00 72 1014.6
20260507184605 62 104 4.0 7.0 0.00 0.00 0.00 72 1014.2
20260507184105 62 129 2.0 6.0 0.00 0.00 0.00 72 1014.2
20260507183105 62 96 5.0 8.0 0.00 0.00 0.00 72 1014.0
20260507182605 62 147 3.0 9.0 0.00 0.00 0.00 72 1013.8
20260507182105 62 66 5.0 7.0 0.00 0.00 0.00 72 1013.7
20260507181605 62 101 3.0 8.0 0.00 0.00 0.00 72 1013.7
20260507181105 63 88 5.0 8.0 0.00 0.00 0.00 72 1013.9
20260507180605 63 124 6.0 8.0 0.00 0.00 0.00 72 1013.9
20260507175605 63 86 4.0 7.0 0.00 0.00 0.00 72 1013.9
20260507175107 63 91 6.0 7.0 0.00 0.00 0.00 72 1013.5
20260507174606 64 103 3.0 6.0 0.00 0.00 0.00 72 1013.5
20260507174105 64 101 6.0 12.0 0.00 0.00 0.00 72 1013.5
20260507173105 64 108 4.0 9.0 0.00 0.00 0.00 71 1013.5
20260507172605 64 109 3.0 6.0 0.00 0.00 0.00 71 1013.5
20260507171604 65 133 7.0 9.0 0.00 0.00 0.00 71 1013.2
20260507171105 65 170 3.0 6.0 0.00 0.00 0.00 71 1013.2
20260507170607 65 170 3.0 6.0 0.00 0.00 0.00 71 1013.2
20260507170111 65 127 5.0 7.0 0.00 0.00 0.00 71 1013.5
20260507165605 65 99 4.0 9.0 0.00 0.00 0.00 71 1013.2
20260507165105 65 152 7.0 9.0 0.00 0.00 0.00 71 1013.2
20260507164606 65 107 5.0 9.0 0.00 0.00 0.00 72 1013.2
20260507164105 65 103 3.0 5.0 0.00 0.00 0.00 72 1013.0
20260507163605 65 114 5.0 8.0 0.00 0.00 0.00 72 1013.2
20260507163105 65 113 4.0 10.0 0.00 0.00 0.00 72 1013.2
20260507162605 65 105 10.0 16.0 0.00 0.00 0.00 72 1013.2
20260507162105 65 131 6.0 13.0 0.00 0.00 0.00 72 1013.5
20260507161605 65 129 6.0 13.0 0.00 0.00 0.00 72 1013.2
20260507161107 65 100 7.0 14.0 0.00 0.00 0.00 72 1013.1
20260507160604 65 92 9.0 18.0 0.00 0.00 0.00 70 1013.2
20260507155604 65 139 6.0 14.0 0.00 0.00 0.00 73 1013.4
20260507155105 65 113 4.0 10.0 0.00 0.00 0.00 74 1013.4
20260507154605 65 136 5.0 13.0 0.00 0.00 0.00 74 1013.4
20260507154105 65 127 8.0 13.0 0.00 0.00 0.00 74 1013.2
20260507153605 65 132 6.0 10.0 0.00 0.00 0.00 74 1013.3
20260507152605 64 138 7.0 14.0 0.00 0.00 0.00 75 1013.5
20260507152105 64 162 5.0 8.0 0.00 0.00 0.00 75 1013.5
20260507151105 64 122 7.0 15.0 0.00 0.00 0.00 75 1013.5
20260507150605 64 107 10.0 16.0 0.00 0.00 0.00 75 1013.5
20260507150113 64 153 6.0 15.0 0.00 0.00 0.00 75 1013.5
20260507145605 64 96 9.0 15.0 0.00 0.00 0.00 74 1013.5
20260507145105 64 116 7.0 13.0 0.00 0.00 0.00 75 1013.6
20260507144605 64 145 5.0 14.0 0.00 0.00 0.00 75 1013.5
20260507144105 64 128 10.0 16.0 0.00 0.00 0.00 75 1013.5
20260507143605 64 101 7.0 13.0 0.00 0.00 0.00 74 1013.5
20260507142105 64 93 12.0 16.0 0.00 0.00 0.00 74 1013.8
20260507141605 64 119 12.0 15.0 0.00 0.00 0.00 74 1013.5
20260507141105 64 104 6.0 14.0 0.00 0.00 0.00 74 1013.8
20260507140606 64 144 6.0 14.0 0.00 0.00 0.00 75 1013.5
20260507140112 64 100 7.0 13.0 0.00 0.00 0.00 75 1013.8
20260507135605 63 172 5.0 18.0 0.00 0.00 0.00 75 1013.6
20260507135105 63 113 11.0 18.0 0.00 0.00 0.00 76 1013.9
20260507134605 63 95 8.0 16.0 0.00 0.00 0.00 76 1013.8
20260507134104 63 107 13.0 16.0 0.00 0.00 0.00 77 1013.5
20260507133605 63 128 8.0 14.0 0.00 0.00 0.00 77 1013.5
20260507133105 63 119 6.0 13.0 0.00 0.00 0.00 78 1013.8
20260507132605 63 135 6.0 16.0 0.00 0.00 0.00 79 1013.7
20260507132105 63 119 8.0 16.0 0.00 0.00 0.00 79 1013.7
20260507130604 64 90 9.0 12.0 0.00 0.00 0.00 79 1013.9
20260507130112 64 127 5.0 17.0 0.00 0.00 0.00 80 1013.7
20260507125605 64 100 10.0 18.0 0.00 0.00 0.00 79 1013.6
20260507125105 65 117 7.0 18.0 0.00 0.00 0.00 79 1013.9
20260507124605 65 103 1.0 14.0 0.00 0.00 0.00 79 1013.8
20260507124105 64 111 9.0 14.0 0.00 0.00 0.00 79 1013.9
20260507123105 64 93 10.0 15.0 0.00 0.00 0.00 80 1013.6
20260507122604 64 146 5.0 12.0 0.00 0.00 0.00 80 1013.8
20260507122105 64 128 9.0 14.0 0.00 0.00 0.00 80 1013.9
20260507121604 64 148 7.0 12.0 0.00 0.00 0.00 80 1013.9
20260507121105 63 111 7.0 14.0 0.00 0.00 0.00 81 1013.9
20260507120605 63 103 5.0 10.0 0.00 0.00 0.00 80 1014.1
20260507115604 64 146 4.0 10.0 0.00 0.00 0.00 81 1014.2
20260507115105 64 129 4.0 8.0 0.00 0.00 0.00 80 1013.9
20260507114604 64 126 5.0 8.0 0.00 0.00 0.00 81 1013.9
20260507114105 64 128 5.0 9.0 0.00 0.00 0.00 81 1014.1
20260507113604 64 141 4.0 13.0 0.00 0.00 0.00 81 1014.1
20260507112605 65 129 5.0 9.0 0.00 0.00 0.00 79 1014.0
20260507112105 64 136 2.0 7.0 0.00 0.00 0.00 79 1013.9
20260507111605 64 167 7.0 13.0 0.00 0.00 0.00 79 1013.9
20260507111105 64 200 2.0 12.0 0.00 0.00 0.00 80 1013.9
20260507110605 64 150 6.0 12.0 0.00 0.00 0.00 80 1014.1
20260507110111 64 110 7.0 12.0 0.00 0.00 0.00 78 1013.9
20260507105604 65 173 1.0 6.0 0.00 0.00 0.00 77 1014.2
20260507105104 65 147 3.0 8.0 0.00 0.00 0.00 76 1014.2
20260507104604 65 191 2.0 5.0 0.00 0.00 0.00 76 1014.1
20260507104104 65 202 3.0 5.0 0.00 0.00 0.00 76 1014.0
20260507103104 64 121 5.0 12.0 0.00 0.00 0.00 77 1014.0
20260507102605 64 125 5.0 10.0 0.00 0.00 0.00 78 1014.2
20260507102105 64 40 5.0 10.0 0.00 0.00 0.00 77 1014.2
20260507101605 64 94 7.0 12.0 0.00 0.00 0.00 77 1014.2
20260507101104 64 129 3.0 9.0 0.00 0.00 0.00 77 1014.2
20260507100605 63 166 5.0 8.0 0.00 0.00 0.00 78 1014.2
20260507100111 64 126 3.0 9.0 0.00 0.00 0.00 77 1014.2
20260507095604 63 156 3.0 15.0 0.00 0.00 0.00 77 1014.2
20260507094105 64 117 6.0 18.0 0.00 0.00 0.00 74 1014.0
20260507093605 65 71 5.0 15.0 0.00 0.00 0.00 75 1013.9
20260507092104 63 92 11.0 17.0 0.00 0.00 0.00 76 1013.6
20260507091605 63 113 7.0 14.0 0.00 0.00 0.00 77 1013.5
20260507091105 62 303 8.0 18.0 0.00 0.00 0.00 77 1013.4
20260507090604 62 117 6.0 22.0 0.00 0.00 0.00 77 1013.5
20260507085105 62 100 11.0 15.0 0.00 0.00 0.00 76 1013.4
20260507084605 62 92 14.0 24.0 0.00 0.00 0.00 76 1013.3
20260507084105 62 112 11.0 17.0 0.00 0.00 0.00 77 1013.5
20260507083604 62 79 8.0 21.0 0.00 0.00 0.00 77 1013.5
20260507083105 61 97 10.0 14.0 0.00 0.00 0.00 78 1013.2
20260507082605 61 116 13.0 24.0 0.00 0.00 0.00 79 1013.5
20260507082104 61 136 9.0 20.0 0.00 0.00 0.00 78 1013.2
20260507081605 61 80 11.0 21.0 0.00 0.00 0.00 79 1013.0
20260507075605 61 83 13.0 20.0 0.00 0.00 0.00 80 1013.2
20260507075105 61 93 16.0 23.0 0.00 0.00 0.00 80 1013.1
20260507074606 61 58 7.0 17.0 0.00 0.00 0.00 80 1013.2
20260507074105 60 117 7.0 15.0 0.00 0.00 0.00 80 1013.2
20260507073606 60 101 12.0 22.0 0.00 0.00 0.00 80 1013.1
20260507073105 60 120 6.0 16.0 0.00 0.00 0.00 81 1013.0
20260507072605 60 92 7.0 14.0 0.00 0.00 0.00 81 1013.1
20260507072105 60 116 8.0 23.0 0.00 0.00 0.00 81 1013.2
20260507071604 60 117 14.0 20.0 0.00 0.00 0.00 81 1013.1
20260507071105 60 85 4.0 14.0 0.00 0.00 0.00 82 1013.4
20260507070605 60 191 6.0 22.0 0.00 0.00 0.00 82 1012.9
20260507070115 60 115 13.0 23.0 0.00 0.00 0.00 82 1013.0
20260507065606 60 106 16.0 23.0 0.00 0.00 0.00 82 1012.9
20260507064605 60 101 12.0 32.0 0.00 0.00 0.00 82 1012.9
20260507064106 60 104 13.0 32.0 0.00 0.00 0.00 82 1013.2
20260507063605 60 120 12.0 23.0 0.00 0.00 0.00 82 1013.2
20260507063105 61 66 12.0 26.0 0.00 0.00 0.00 82 1013.1
20260507062104 61 111 11.0 24.0 0.00 0.00 0.00 81 1012.9
20260507061105 61 94 13.0 31.0 0.00 0.00 0.00 79 1013.2
20260507060605 61 102 12.0 31.0 0.00 0.00 0.00 79 1013.2
20260507055605 61 203 4.0 14.0 0.00 0.00 0.00 80 1013.2
20260507055105 61 86 13.0 18.0 0.00 0.00 0.00 80 1013.4
20260507054105 60 112 6.0 13.0 0.00 0.00 0.00 81 1013.4
20260507053605 60 70 6.0 9.0 0.00 0.00 0.00 81 1013.5
20260507053105 60 55 7.0 16.0 0.00 0.00 0.00 80 1013.5
20260507052606 60 92 5.0 10.0 0.00 0.00 0.00 80 1013.5
20260507052104 60 120 6.0 13.0 0.00 0.00 0.00 80 1013.5
20260507051605 61 141 5.0 12.0 0.00 0.00 0.00 80 1013.5
20260507051105 60 92 7.0 13.0 0.00 0.00 0.00 79 1013.2
20260507050113 60 144 6.0 10.0 0.00 0.00 0.00 78 1013.4
20260507045606 60 129 4.0 10.0 0.00 0.00 0.00 79 1013.5
20260507045105 60 70 7.0 17.0 0.00 0.00 0.00 79 1013.2
20260507044605 61 119 4.0 12.0 0.00 0.00 0.00 77 1013.2
20260507044106 61 104 4.0 12.0 0.00 0.00 0.00 74 1012.9
20260507043608 62 37 5.0 8.0 0.00 0.00 0.00 72 1013.1
20260507043105 62 316 4.0 6.0 0.00 0.00 0.00 71 1013.0
20260507042105 62 191 1.0 5.0 0.00 0.00 0.00 70 1012.9
20260507041605 62 105 3.0 9.0 0.00 0.00 0.00 69 1012.6
20260507041105 63 185 2.0 8.0 0.00 0.00 0.00 70 1012.9
20260507040605 63 161 3.0 10.0 0.00 0.00 0.00 70 1012.9
20260507040114 63 214 3.0 13.0 0.00 0.00 0.00 70 1012.6
20260507035105 63 135 7.0 16.0 0.00 0.00 0.00 71 1011.9
20260507034605 64 115 11.0 17.0 0.00 0.00 0.00 70 1011.6
20260507034105 64 125 11.0 24.0 0.00 0.00 0.00 70 1011.3
20260507033605 64 126 11.0 30.0 0.00 0.00 0.00 70 1011.2
20260507033105 64 132 8.0 29.0 0.00 0.00 0.00 70 1011.2
20260507032106 64 116 12.0 21.0 0.00 0.00 0.00 70 1011.2
20260507031105 64 116 13.0 22.0 0.00 0.00 0.00 70 1011.2
20260507030606 64 114 17.0 28.0 0.00 0.00 0.00 70 1011.2
20260507030119 64 119 16.0 25.0 0.00 0.00 0.00 70 1011.2
20260507025606 64 91 12.0 23.0 0.00 0.00 0.00 70 1011.0
20260507024605 64 127 14.0 26.0 0.00 0.00 0.00 70 1011.4
20260507023605 64 123 10.0 25.0 0.00 0.00 0.00 70 1011.2
20260507023105 64 88 18.0 26.0 0.00 0.00 0.00 70 1011.2
20260507022605 64 128 19.0 28.0 0.00 0.00 0.00 71 1011.2
20260507022105 64 126 17.0 24.0 0.00 0.00 0.00 71 1011.2
20260507021605 64 79 18.0 24.0 0.00 0.00 0.00 71 1011.2
20260507021105 64 107 12.0 24.0 0.00 0.00 0.00 70 1011.2
20260507020605 64 118 12.0 23.0 0.00 0.00 0.00 70 1011.5
20260507015606 64 103 15.0 25.0 0.00 0.00 0.00 70 1011.2
20260507015105 64 120 17.0 26.0 0.00 0.00 0.00 70 1011.3
20260507014605 64 118 16.0 26.0 0.00 0.00 0.00 70 1011.2
20260507014110 64 79 9.0 21.0 0.00 0.00 0.00 70 1011.2
20260507013606 64 91 13.0 28.0 0.00 0.00 0.00 70 1011.2
20260507013105 64 91 13.0 31.0 0.00 0.00 0.00 70 1011.3
20260507012606 64 82 18.0 25.0 0.00 0.00 0.00 70 1011.5
20260507012106 64 115 13.0 24.0 0.00 0.00 0.00 70 1011.3
20260507011605 64 102 10.0 24.0 0.00 0.00 0.00 70 1011.5
20260507010605 64 128 10.0 24.0 0.00 0.00 0.00 70 1011.2
20260507010114 64 91 18.0 25.0 0.00 0.00 0.00 70 1011.3